Delaware, OH

9:17 PM EDT on May 24, 2017 (GMT -0400)
Delaware Municipal

Weather History for KDLZ - January, 2014

Change the Weather History Date:

Saturday, January 18, 2014

  Actual Average Record
Temperature  
Mean Temperature 11 °F -  
Max Temperature 21 °F 33 °F 61 °F (1952)
Min Temperature 1 °F 15 °F -19 °F (1977)
Degree Days  
Heating Degree Days 54    
Moisture  
Dew Point 9 °F    
Average Humidity 82    
Maximum Humidity 93    
Minimum Humidity 68    
Precipitation  
Precipitation 0.00 in - - ()
Sea Level Pressure  
Sea Level Pressure 29.94 in    
Wind  
Wind Speed 8 mph (SSW)    
Max Wind Speed 13 mph    
Max Gust Speed 17 mph    
Visibility 8 miles    
Events Snow    
Averages and records for this station are not official NWS values.
T = Trace of Precipitation, MM = Missing Value Source: NWS Daily Summary

Daily Weather History Graph

Daily Weather History Graph

Search for Another Location

Airport or City:

Trip Planner

Search our weather history database for the weather conditions in past years. The results will help you decide how hot, cold, wet, or windy it might be!

Date:

Astronomy

Jan. 18, 2014 Rise Set
Actual Time 7:51 AM EST 5:34 PM EST
Civil Twilight 7:22 AM EST 6:04 PM EST
Nautical Twilight 6:48 AM EST 6:37 PM EST
Astronomical Twilight 6:16 AM EST 7:09 PM EST
Moon 8:15 PM EST (1/18) 8:50 AM EST (1/18)
Length of Visible Light 10h 41m
Length of Day
9h 42m
Waning Gibbous, 94% of the Moon is Illuminated
Jan 18
Waning Gibbous
Jan 24
Last Quarter
Jan 30
New
Feb 6
First Quarter
Feb 14
Full

Hourly Weather History & Observations

Time (EST) Temp. Windchill Dew Point Humidity Pressure Visibility Wind Dir Wind Speed Gust Speed Precip Events Conditions
12:15 AM 5.0 °F -5.6 °F -0.4 °F 78% 30.01 in 10.0 mi SSW 5.8 mph - N/A   Overcast
12:34 AM 5.0 °F -5.6 °F -0.4 °F 78% 30.01 in 10.0 mi SSW 5.8 mph - N/A   Overcast
12:55 AM 3.2 °F -9.1 °F -2.2 °F 78% 30.00 in 10.0 mi SSW 6.9 mph - N/A   Mostly Cloudy
1:15 AM 3.2 °F -7.8 °F -2.2 °F 78% 30.00 in 10.0 mi SSW 5.8 mph - N/A   Mostly Cloudy
1:34 AM 5.0 °F -6.9 °F -0.4 °F 78% 29.99 in 10.0 mi SSW 6.9 mph - N/A   Overcast
1:55 AM 5.0 °F -8.1 °F -0.4 °F 78% 29.99 in 10.0 mi SSW 8.1 mph - N/A   Overcast
2:15 AM 3.2 °F -7.8 °F -0.4 °F 85% 29.99 in 10.0 mi SSW 5.8 mph - N/A   Mostly Cloudy
2:34 AM 3.2 °F -7.8 °F -0.4 °F 85% 29.99 in 10.0 mi SSW 5.8 mph - N/A   Scattered Clouds
2:55 AM 3.2 °F -9.1 °F -0.4 °F 85% 29.99 in 10.0 mi SW 6.9 mph - N/A   Scattered Clouds
3:15 AM 3.2 °F -7.8 °F -0.4 °F 85% 29.99 in 10.0 mi SW 5.8 mph - N/A   Mostly Cloudy
3:34 AM 1.4 °F -8.3 °F -0.4 °F 92% 29.99 in 10.0 mi SSW 4.6 mph - N/A   Scattered Clouds
3:55 AM 1.4 °F -8.3 °F -2.2 °F 85% 29.99 in 10.0 mi SW 4.6 mph - N/A   Mostly Cloudy
4:15 AM 3.2 °F -6.2 °F -0.4 °F 85% 29.99 in 10.0 mi SW 4.6 mph - N/A   Overcast
4:34 AM 5.0 °F -5.6 °F 1.4 °F 85% 29.98 in 10.0 mi SW 5.8 mph - N/A   Overcast
4:55 AM 6.8 °F -4.8 °F 3.2 °F 85% 29.98 in 10.0 mi SW 6.9 mph - N/A   Overcast
5:15 AM 8.6 °F -3.7 °F 5.0 °F 85% 29.98 in 10.0 mi SW 8.1 mph - N/A   Overcast
5:34 AM 8.6 °F -3.7 °F 5.0 °F 85% 29.98 in 10.0 mi SW 8.1 mph - N/A   Overcast
5:55 AM 10.4 °F -1.5 °F 5.0 °F 79% 29.98 in 10.0 mi SW 8.1 mph - N/A   Overcast
6:15 AM 10.4 °F -1.5 °F 5.0 °F 79% 29.98 in 10.0 mi SW 8.1 mph - N/A   Overcast
6:34 AM 10.4 °F -0.4 °F 6.8 °F 85% 29.98 in 10.0 mi SW 6.9 mph - N/A   Overcast
6:55 AM 10.4 °F 0.8 °F 6.8 °F 85% 29.98 in 10.0 mi SW 5.8 mph - N/A   Overcast
7:15 AM 10.4 °F 0.8 °F 6.8 °F 85% 29.98 in 10.0 mi SW 5.8 mph - N/A   Overcast
7:34 AM 10.4 °F 0.8 °F 6.8 °F 85% 29.98 in 10.0 mi SW 5.8 mph - N/A   Overcast
7:55 AM 10.4 °F -0.4 °F 6.8 °F 85% 29.98 in 10.0 mi SSW 6.9 mph - N/A   Overcast
8:15 AM 10.4 °F -1.5 °F 6.8 °F 85% 29.99 in 10.0 mi SW 8.1 mph - N/A   Overcast
8:34 AM 12.2 °F 0.7 °F 6.8 °F 79% 29.99 in 10.0 mi SSW 8.1 mph - N/A   Overcast
8:55 AM 12.2 °F -0.2 °F 8.6 °F 85% 29.99 in 10.0 mi SW 9.2 mph - N/A   Overcast
9:15 AM 12.2 °F -0.2 °F 8.6 °F 85% 30.00 in 10.0 mi SW 9.2 mph - N/A   Overcast
9:34 AM 12.2 °F -0.2 °F 8.6 °F 85% 30.01 in 10.0 mi SW 9.2 mph - N/A   Overcast
9:55 AM 12.2 °F -1.0 °F 8.6 °F 85% 30.02 in 7.0 mi SW 10.4 mph - N/A Snow Light Snow
10:15 AM 14.0 °F 2.0 °F 8.6 °F 79% 30.02 in 5.0 mi SW 9.2 mph - N/A Snow Light Snow
10:34 AM 14.0 °F 1.2 °F 8.6 °F 79% 30.02 in 10.0 mi SW 10.4 mph - N/A Snow Light Snow
10:55 AM 14.0 °F 0.5 °F 8.6 °F 79% 30.02 in 10.0 mi SW 11.5 mph - N/A   Overcast
11:15 AM 15.8 °F 2.1 °F 8.6 °F 73% 30.02 in 10.0 mi SW 12.7 mph 17.3 mph N/A   Overcast
11:34 AM 15.8 °F 3.4 °F 8.6 °F 73% 30.01 in 10.0 mi SSW 10.4 mph - N/A Snow Light Snow
11:55 AM 17.6 °F 5.0 °F 10.4 °F 73% 29.99 in 10.0 mi SSW 11.5 mph - N/A   Mostly Cloudy
12:15 PM 17.6 °F 4.3 °F 10.4 °F 73% 29.97 in 10.0 mi SSW 12.7 mph - N/A   Mostly Cloudy
12:34 PM 17.6 °F 5.7 °F 10.4 °F 73% 29.96 in 10.0 mi SSW 10.4 mph - N/A   Mostly Cloudy
12:55 PM 17.6 °F 5.0 °F 10.4 °F 73% 29.96 in 10.0 mi SW 11.5 mph - N/A   Mostly Cloudy
1:15 PM 17.6 °F 5.7 °F 10.4 °F 73% 29.94 in 10.0 mi SW 10.4 mph - N/A   Overcast
1:34 PM 17.6 °F 5.0 °F 10.4 °F 73% 29.94 in 10.0 mi SW 11.5 mph 16.1 mph N/A   Overcast
1:55 PM 19.4 °F 7.2 °F 10.4 °F 68% 29.92 in 10.0 mi SW 11.5 mph - N/A   Overcast
2:15 PM 19.4 °F 7.2 °F 12.2 °F 74% 29.92 in 10.0 mi SSW 11.5 mph - N/A   Overcast
2:34 PM 19.4 °F 8.6 °F 12.2 °F 74% 29.91 in 10.0 mi South 9.2 mph - N/A Snow Light Snow
2:55 PM 19.4 °F 9.5 °F 12.2 °F 74% 29.91 in 10.0 mi South 8.1 mph - N/A   Overcast
3:15 PM 19.4 °F 8.6 °F 12.2 °F 74% 29.90 in 10.0 mi SSE 9.2 mph - N/A   Overcast
3:34 PM 19.4 °F 9.5 °F 12.2 °F 74% 29.90 in 10.0 mi South 8.1 mph - N/A   Overcast
3:55 PM 21.2 °F 10.9 °F 12.2 °F 68% 29.90 in 10.0 mi South 9.2 mph - N/A   Mostly Cloudy
4:15 PM 21.2 °F 11.7 °F 12.2 °F 68% 29.90 in 10.0 mi South 8.1 mph - N/A   Mostly Cloudy
4:34 PM 21.2 °F 9.5 °F 14.0 °F 74% 29.90 in 10.0 mi South 11.5 mph - N/A   Overcast
4:55 PM 21.2 °F 10.9 °F 14.0 °F 74% 29.90 in 10.0 mi South 9.2 mph - N/A   Overcast
5:15 PM 21.2 °F 9.5 °F 14.0 °F 74% 29.90 in 10.0 mi South 11.5 mph - N/A   Overcast
5:34 PM 21.2 °F 8.9 °F 14.0 °F 74% 29.89 in 10.0 mi SSE 12.7 mph 16.1 mph N/A   Overcast
5:55 PM 21.2 °F 10.9 °F 14.0 °F 74% 29.88 in 10.0 mi SSE 9.2 mph - N/A   Overcast
6:14 PM 21.2 °F 10.1 °F 14.0 °F 74% 29.88 in 4.0 mi SSE 10.4 mph - N/A Snow Light Snow
6:35 PM 21.2 °F 10.9 °F 15.8 °F 80% 29.87 in 3.0 mi SE 9.2 mph - N/A Snow Light Snow
6:55 PM 19.4 °F 9.5 °F 17.6 °F 93% 29.87 in 2.0 mi SSE 8.1 mph - N/A Snow Light Snow
7:14 PM 19.4 °F 10.4 °F 17.6 °F 93% 29.87 in 2.0 mi SE 6.9 mph - N/A Snow Light Snow
7:35 PM 19.4 °F 7.9 °F 17.6 °F 93% 29.87 in 2.5 mi SSE 10.4 mph - N/A Snow Light Snow
7:55 PM 19.4 °F 9.5 °F 17.6 °F 93% 29.87 in 1.5 mi SSE 8.1 mph - N/A Snow Light Snow
8:14 PM 19.4 °F 10.4 °F 17.6 °F 93% 29.87 in 1.8 mi SSE 6.9 mph - N/A Snow Light Snow
8:35 PM 19.4 °F 9.5 °F 17.6 °F 93% 29.86 in 1.8 mi SE 8.1 mph - N/A Snow Light Snow
8:55 PM 19.4 °F 11.5 °F 17.6 °F 93% 29.85 in 2.5 mi SE 5.8 mph - N/A Snow Light Snow
9:14 PM 19.4 °F 10.4 °F 17.6 °F 93% 29.85 in 3.0 mi SE 6.9 mph - N/A Snow Light Snow
9:35 PM 19.4 °F 10.4 °F 17.6 °F 93% 29.84 in 4.0 mi SE 6.9 mph - N/A Snow Light Snow
9:55 PM 19.4 °F 11.5 °F 17.6 °F 93% 29.83 in 5.0 mi SE 5.8 mph - N/A Snow Light Snow
10:14 PM 19.4 °F 11.5 °F 17.6 °F 93% 29.82 in 3.0 mi SE 5.8 mph - N/A Snow Light Snow
10:35 PM 19.4 °F 10.4 °F 17.6 °F 93% 29.80 in 2.5 mi SE 6.9 mph - N/A Snow Light Snow
10:54 PM 21.2 °F 13.6 °F 17.6 °F 86% 29.80 in 4.0 mi SE 5.8 mph - N/A Snow Light Snow
11:15 PM 19.4 °F 10.4 °F 17.6 °F 93% 29.79 in 7.0 mi SE 6.9 mph - N/A Snow Light Snow
11:35 PM 19.4 °F 11.5 °F 17.6 °F 93% 29.78 in 5.0 mi SE 5.8 mph - N/A Snow Light Snow
11:54 PM 21.2 °F 13.6 °F 17.6 °F 86% 29.77 in 7.0 mi SE 5.8 mph - N/A Snow Light Snow